Time,TemperatureF,DewpointF,PressureIn,WindDirection,WindDirectionDegrees,WindSpeedMPH,WindSpeedGustMPH,Humidity,HourlyPrecipIn,Conditions,Clouds,dailyrainin,SoftwareType,DateUTC
2013-07-31 00:01:00,82.0,74.0,30.11,ESE,112,3.0,3.0,78,0.00,,,0.00,Rainwise IP-100,2013-07-31 04:01:00,
2013-07-31 00:06:00,82.0,74.0,30.11,East,90,0.0,1.0,79,0.00,,,0.00,Rainwise IP-100,2013-07-31 04:06:00,
2013-07-31 00:11:00,82.0,74.0,30.11,ESE,112,6.0,6.0,78,0.00,,,0.00,Rainwise IP-100,2013-07-31 04:11:00,
2013-07-31 00:17:00,82.0,73.0,30.11,East,90,7.0,7.0,76,0.00,,,0.00,Rainwise IP-100,2013-07-31 04:17:00,
2013-07-31 00:22:00,82.0,74.0,30.11,NE,45,7.0,9.0,78,0.00,,,0.00,Rainwise IP-100,2013-07-31 04:22:00,
2013-07-31 00:27:00,82.0,73.0,30.11,South,180,5.0,0.0,76,0.00,,,0.00,Rainwise IP-100,2013-07-31 04:27:00,
2013-07-31 00:32:00,82.0,73.0,30.11,ENE,67,0.0,2.0,75,0.00,,,0.00,Rainwise IP-100,2013-07-31 04:32:00,
2013-07-31 00:37:00,82.0,72.0,30.11,East,90,4.0,4.0,74,0.00,,,0.00,Rainwise IP-100,2013-07-31 04:37:00,
2013-07-31 00:42:00,82.0,73.0,30.11,East,90,4.0,0.0,75,0.00,,,0.00,Rainwise IP-100,2013-07-31 04:42:00,
2013-07-31 00:47:00,82.0,73.0,30.11,East,90,5.0,0.0,75,0.00,,,0.00,Rainwise IP-100,2013-07-31 04:47:00,
2013-07-31 00:53:00,82.0,73.0,30.10,East,90,7.0,7.0,75,0.00,,,0.00,Rainwise IP-100,2013-07-31 04:53:00,
2013-07-31 00:58:00,82.0,73.0,30.10,East,90,6.0,6.0,76,0.00,,,0.00,Rainwise IP-100,2013-07-31 04:58:00,
2013-07-31 01:03:00,82.0,73.0,30.10,East,90,0.0,9.0,76,0.00,,,0.00,Rainwise IP-100,2013-07-31 05:03:00,
2013-07-31 01:08:00,82.0,73.0,30.10,ESE,112,6.0,6.0,76,0.00,,,0.00,Rainwise IP-100,2013-07-31 05:08:00,
2013-07-31 01:13:00,82.0,73.0,30.10,East,90,3.0,0.0,76,0.00,,,0.00,Rainwise IP-100,2013-07-31 05:13:00,
2013-07-31 01:18:00,82.0,74.0,30.10,ESE,112,7.0,7.0,77,0.00,,,0.00,Rainwise IP-100,2013-07-31 05:18:00,
2013-07-31 01:23:00,82.0,74.0,30.10,ENE,67,6.0,0.0,77,0.00,,,0.00,Rainwise IP-100,2013-07-31 05:23:00,
2013-07-31 01:28:00,82.0,74.0,30.10,SE,135,2.0,0.0,78,0.00,,,0.00,Rainwise IP-100,2013-07-31 05:28:00,
2013-07-31 01:34:00,82.0,74.0,30.09,NE,45,9.0,9.0,78,0.00,,,0.00,Rainwise IP-100,2013-07-31 05:34:00,
2013-07-31 01:39:00,82.0,74.0,30.09,East,90,3.0,0.0,79,0.00,,,0.00,Rainwise IP-100,2013-07-31 05:39:00,
2013-07-31 01:44:00,82.0,74.0,30.09,NE,45,4.0,0.0,78,0.00,,,0.00,Rainwise IP-100,2013-07-31 05:44:00,
2013-07-31 01:49:00,82.0,74.0,30.09,East,90,7.0,7.0,77,0.00,,,0.00,Rainwise IP-100,2013-07-31 05:49:00,
2013-07-31 01:54:00,82.0,74.0,30.09,East,90,2.0,2.0,78,0.00,,,0.00,Rainwise IP-100,2013-07-31 05:54:00,
2013-07-31 01:59:00,82.0,74.0,30.08,NE,45,5.0,0.0,78,0.00,,,0.00,Rainwise IP-100,2013-07-31 05:59:00,
2013-07-31 02:04:00,82.0,74.0,30.08,ENE,67,5.0,5.0,77,0.00,,,0.00,Rainwise IP-100,2013-07-31 06:04:00,
2013-07-31 02:10:00,82.0,74.0,30.08,East,90,7.0,9.0,77,0.00,,,0.00,Rainwise IP-100,2013-07-31 06:10:00,
2013-07-31 02:15:00,82.0,73.0,30.08,East,90,4.0,0.0,76,0.00,,,0.00,Rainwise IP-100,2013-07-31 06:15:00,
2013-07-31 02:20:00,81.0,72.0,30.08,NE,45,9.0,9.0,76,0.00,,,0.00,Rainwise IP-100,2013-07-31 06:20:00,
2013-07-31 02:25:00,81.0,73.0,30.07,ENE,67,7.0,0.0,77,0.00,,,0.00,Rainwise IP-100,2013-07-31 06:25:00,
2013-07-31 02:30:00,81.0,73.0,30.07,East,90,6.0,6.0,77,0.00,,,0.00,Rainwise IP-100,2013-07-31 06:30:00,
2013-07-31 02:35:00,81.0,73.0,30.07,East,90,7.0,0.0,78,0.00,,,0.00,Rainwise IP-100,2013-07-31 06:35:00,
2013-07-31 02:40:00,81.0,74.0,30.07,East,90,6.0,6.0,79,0.00,,,0.00,Rainwise IP-100,2013-07-31 06:40:00,
2013-07-31 02:45:00,81.0,74.0,30.07,ENE,67,3.0,3.0,79,0.00,,,0.00,Rainwise IP-100,2013-07-31 06:45:00,
2013-07-31 02:51:00,81.0,74.0,30.06,East,90,6.0,9.0,80,0.00,,,0.00,Rainwise IP-100,2013-07-31 06:51:00,
2013-07-31 02:56:00,81.0,74.0,30.06,NE,45,6.0,9.0,80,0.00,,,0.00,Rainwise IP-100,2013-07-31 06:56:00,
2013-07-31 03:01:00,81.0,74.0,30.06,NE,45,4.0,8.0,80,0.00,,,0.00,Rainwise IP-100,2013-07-31 07:01:00,
2013-07-31 03:06:00,81.0,74.0,30.06,East,90,1.0,9.0,81,0.00,,,0.00,Rainwise IP-100,2013-07-31 07:06:00,
2013-07-31 03:11:00,81.0,74.0,30.06,NE,45,6.0,8.0,81,0.00,,,0.00,Rainwise IP-100,2013-07-31 07:11:00,
2013-07-31 03:16:00,81.0,74.0,30.06,SSE,157,3.0,9.0,81,0.00,,,0.00,Rainwise IP-100,2013-07-31 07:16:00,
2013-07-31 03:21:00,81.0,74.0,30.06,ENE,67,5.0,9.0,79,0.00,,,0.00,Rainwise IP-100,2013-07-31 07:21:00,
2013-07-31 03:27:00,81.0,74.0,30.06,NE,45,6.0,0.0,79,0.00,,,0.00,Rainwise IP-100,2013-07-31 07:27:00,
2013-07-31 03:32:00,81.0,74.0,30.05,NE,45,6.0,9.0,80,0.00,,,0.00,Rainwise IP-100,2013-07-31 07:32:00,
2013-07-31 03:37:00,82.0,75.0,30.05,ENE,67,3.0,0.0,80,0.00,,,0.00,Rainwise IP-100,2013-07-31 07:37:00,
2013-07-31 03:42:00,82.0,75.0,30.05,ENE,67,4.0,0.0,81,0.00,,,0.00,Rainwise IP-100,2013-07-31 07:42:00,
2013-07-31 03:47:00,82.0,75.0,30.05,NE,45,6.0,9.0,81,0.00,,,0.00,Rainwise IP-100,2013-07-31 07:47:00,
2013-07-31 03:52:00,82.0,75.0,30.05,NE,45,8.0,0.0,81,0.00,,,0.00,Rainwise IP-100,2013-07-31 07:52:00,
2013-07-31 03:57:00,82.0,76.0,30.04,NE,45,6.0,6.0,82,0.00,,,0.00,Rainwise IP-100,2013-07-31 07:57:00,
2013-07-31 04:03:00,82.0,76.0,30.04,ENE,67,0.0,3.0,83,0.00,,,0.00,Rainwise IP-100,2013-07-31 08:03:00,
2013-07-31 04:08:00,81.0,76.0,30.04,East,90,9.0,9.0,85,0.00,,,0.00,Rainwise IP-100,2013-07-31 08:08:00,
2013-07-31 04:13:00,79.0,75.0,30.04,NE,45,9.0,9.0,88,0.54,,,0.09,Rainwise IP-100,2013-07-31 08:13:00,
2013-07-31 04:18:00,79.0,75.0,30.04,East,90,9.0,9.0,89,0.54,,,0.10,Rainwise IP-100,2013-07-31 08:18:00,
2013-07-31 04:23:00,79.0,76.0,30.04,NE,45,3.0,9.0,90,0.06,,,0.10,Rainwise IP-100,2013-07-31 08:23:00,
2013-07-31 04:28:00,79.0,76.0,30.04,NE,45,7.0,9.0,92,0.06,,,0.10,Rainwise IP-100,2013-07-31 08:28:00,
2013-07-31 04:33:00,79.0,76.0,30.03,East,90,5.0,7.0,92,0.00,,,0.10,Rainwise IP-100,2013-07-31 08:33:00,
2013-07-31 04:38:00,80.0,77.0,30.03,ESE,112,1.0,9.0,91,0.00,,,0.10,Rainwise IP-100,2013-07-31 08:38:00,
2013-07-31 04:44:00,80.0,76.0,30.04,East,90,4.0,9.0,89,0.00,,,0.10,Rainwise IP-100,2013-07-31 08:44:00,
2013-07-31 04:49:00,80.0,76.0,30.04,SE,135,5.0,8.0,88,0.00,,,0.10,Rainwise IP-100,2013-07-31 08:49:00,
2013-07-31 04:54:00,80.0,76.0,30.04,East,90,0.0,9.0,90,0.00,,,0.10,Rainwise IP-100,2013-07-31 08:54:00,
2013-07-31 04:59:00,80.0,76.0,30.04,East,90,4.0,0.0,90,0.00,,,0.10,Rainwise IP-100,2013-07-31 08:59:00,
2013-07-31 05:04:00,80.0,76.0,30.04,East,90,8.0,8.0,88,0.00,,,0.10,Rainwise IP-100,2013-07-31 09:04:00,
2013-07-31 05:09:00,80.0,76.0,30.04,East,90,3.0,3.0,87,0.00,,,0.10,Rainwise IP-100,2013-07-31 09:09:00,
2013-07-31 05:14:00,80.0,76.0,30.04,ESE,112,7.0,9.0,87,0.00,,,0.10,Rainwise IP-100,2013-07-31 09:14:00,
2013-07-31 05:20:00,80.0,76.0,30.04,ENE,67,5.0,0.0,87,0.00,,,0.10,Rainwise IP-100,2013-07-31 09:20:00,
2013-07-31 05:25:00,80.0,75.0,30.04,East,90,6.0,7.0,85,0.00,,,0.10,Rainwise IP-100,2013-07-31 09:25:00,
2013-07-31 05:30:00,80.0,74.0,30.04,SE,135,6.0,0.0,83,0.00,,,0.10,Rainwise IP-100,2013-07-31 09:30:00,
2013-07-31 05:35:00,81.0,75.0,30.04,East,90,5.0,0.0,83,0.00,,,0.10,Rainwise IP-100,2013-07-31 09:35:00,
2013-07-31 05:40:00,81.0,76.0,30.04,NE,45,6.0,6.0,85,0.00,,,0.10,Rainwise IP-100,2013-07-31 09:40:00,
2013-07-31 05:45:00,81.0,76.0,30.04,ENE,67,6.0,6.0,85,0.00,,,0.10,Rainwise IP-100,2013-07-31 09:45:00,
2013-07-31 05:50:00,81.0,76.0,30.04,East,90,6.0,6.0,85,0.00,,,0.10,Rainwise IP-100,2013-07-31 09:50:00,
2013-07-31 05:55:00,81.0,76.0,30.04,NE,45,7.0,7.0,86,0.00,,,0.10,Rainwise IP-100,2013-07-31 09:55:00,
2013-07-31 06:01:00,81.0,76.0,30.05,East,90,2.0,2.0,85,0.00,,,0.10,Rainwise IP-100,2013-07-31 10:01:00,
2013-07-31 06:06:00,81.0,76.0,30.05,ENE,67,0.0,3.0,85,0.00,,,0.10,Rainwise IP-100,2013-07-31 10:06:00,
2013-07-31 06:11:00,81.0,76.0,30.05,East,90,0.0,4.0,86,0.00,,,0.10,Rainwise IP-100,2013-07-31 10:11:00,
2013-07-31 06:16:00,81.0,76.0,30.05,East,90,7.0,7.0,86,0.00,,,0.10,Rainwise IP-100,2013-07-31 10:16:00,
2013-07-31 06:21:00,81.0,76.0,30.05,East,90,7.0,7.0,86,0.00,,,0.10,Rainwise IP-100,2013-07-31 10:21:00,
2013-07-31 06:26:00,81.0,76.0,30.05,East,90,8.0,8.0,85,0.00,,,0.10,Rainwise IP-100,2013-07-31 10:26:00,
2013-07-31 06:31:00,81.0,76.0,30.05,ENE,67,9.0,9.0,85,0.00,,,0.10,Rainwise IP-100,2013-07-31 10:31:00,
2013-07-31 06:37:00,81.0,76.0,30.06,ENE,67,6.0,6.0,85,0.00,,,0.10,Rainwise IP-100,2013-07-31 10:37:00,
2013-07-31 06:42:00,81.0,76.0,30.06,East,90,5.0,5.0,84,0.00,,,0.10,Rainwise IP-100,2013-07-31 10:42:00,
2013-07-31 06:47:00,81.0,75.0,30.06,East,90,0.0,5.0,83,0.00,,,0.10,Rainwise IP-100,2013-07-31 10:47:00,
2013-07-31 06:52:00,81.0,75.0,30.06,East,90,5.0,7.0,83,0.00,,,0.10,Rainwise IP-100,2013-07-31 10:52:00,
2013-07-31 06:57:00,81.0,75.0,30.06,ESE,112,1.0,3.0,83,0.00,,,0.10,Rainwise IP-100,2013-07-31 10:57:00,
2013-07-31 07:02:00,81.0,75.0,30.06,East,90,3.0,3.0,83,0.00,,,0.10,Rainwise IP-100,2013-07-31 11:02:00,
2013-07-31 07:07:00,81.0,75.0,30.07,East,90,6.0,6.0,83,0.00,,,0.10,Rainwise IP-100,2013-07-31 11:07:00,
2013-07-31 07:12:00,81.0,75.0,30.07,East,90,6.0,6.0,83,0.00,,,0.10,Rainwise IP-100,2013-07-31 11:12:00,
2013-07-31 07:18:00,81.0,75.0,30.07,ENE,67,3.0,9.0,82,0.00,,,0.10,Rainwise IP-100,2013-07-31 11:18:00,
2013-07-31 07:23:00,81.0,75.0,30.07,NE,45,7.0,7.0,83,0.00,,,0.10,Rainwise IP-100,2013-07-31 11:23:00,
2013-07-31 07:28:00,81.0,75.0,30.08,ESE,112,4.0,9.0,83,0.00,,,0.10,Rainwise IP-100,2013-07-31 11:28:00,
2013-07-31 07:33:00,81.0,75.0,30.08,East,90,5.0,0.0,83,0.00,,,0.10,Rainwise IP-100,2013-07-31 11:33:00,
2013-07-31 07:38:00,81.0,75.0,30.08,East,90,6.0,6.0,82,0.00,,,0.10,Rainwise IP-100,2013-07-31 11:38:00,
2013-07-31 07:43:00,82.0,75.0,30.08,NE,45,7.0,7.0,81,0.00,,,0.10,Rainwise IP-100,2013-07-31 11:43:00,
2013-07-31 07:48:00,82.0,75.0,30.08,ESE,112,7.0,9.0,81,0.00,,,0.10,Rainwise IP-100,2013-07-31 11:48:00,
2013-07-31 07:54:00,82.0,74.0,30.08,South,180,1.0,2.0,79,0.00,,,0.10,Rainwise IP-100,2013-07-31 11:54:00,
2013-07-31 07:59:00,83.0,74.0,30.09,East,90,0.0,0.0,76,0.00,,,0.10,Rainwise IP-100,2013-07-31 11:59:00,
2013-07-31 08:04:00,83.0,75.0,30.09,East,90,7.0,7.0,77,0.00,,,0.10,Rainwise IP-100,2013-07-31 12:04:00,
2013-07-31 08:09:00,83.0,75.0,30.09,East,90,6.0,0.0,78,0.00,,,0.10,Rainwise IP-100,2013-07-31 12:09:00,
2013-07-31 08:14:00,83.0,74.0,30.09,ENE,67,6.0,6.0,76,0.00,,,0.10,Rainwise IP-100,2013-07-31 12:14:00,
2013-07-31 08:19:00,84.0,76.0,30.10,NE,45,9.0,0.0,76,0.00,,,0.10,Rainwise IP-100,2013-07-31 12:19:00,
2013-07-31 08:24:00,84.0,76.0,30.10,East,90,3.0,3.0,76,0.00,,,0.10,Rainwise IP-100,2013-07-31 12:24:00,
2013-07-31 08:29:00,84.0,75.0,30.10,East,90,2.0,9.0,75,0.00,,,0.10,Rainwise IP-100,2013-07-31 12:29:00,
2013-07-31 08:35:00,84.0,75.0,30.11,East,90,7.0,7.0,75,0.00,,,0.10,Rainwise IP-100,2013-07-31 12:35:00,
2013-07-31 08:40:00,84.0,76.0,30.11,NE,45,9.0,9.0,77,0.00,,,0.10,Rainwise IP-100,2013-07-31 12:40:00,
2013-07-31 08:45:00,84.0,76.0,30.11,NE,45,0.0,5.0,76,0.00,,,0.10,Rainwise IP-100,2013-07-31 12:45:00,
2013-07-31 08:50:00,84.0,76.0,30.11,NE,45,7.0,7.0,76,0.00,,,0.10,Rainwise IP-100,2013-07-31 12:50:00,
2013-07-31 08:55:00,85.0,75.0,30.11,ENE,67,6.0,6.0,73,0.00,,,0.10,Rainwise IP-100,2013-07-31 12:55:00,
2013-07-31 09:00:00,85.0,74.0,30.11,NE,45,9.0,9.0,71,0.00,,,0.10,Rainwise IP-100,2013-07-31 13:00:00,
2013-07-31 09:05:00,85.0,75.0,30.12,East,90,8.0,8.0,73,0.00,,,0.10,Rainwise IP-100,2013-07-31 13:05:00,
2013-07-31 09:11:00,85.0,75.0,30.12,NE,45,9.0,0.0,73,0.00,,,0.10,Rainwise IP-100,2013-07-31 13:11:00,
2013-07-31 09:16:00,86.0,76.0,30.12,NE,45,0.0,2.0,72,0.00,,,0.10,Rainwise IP-100,2013-07-31 13:16:00,
2013-07-31 09:21:00,86.0,75.0,30.12,ENE,67,9.0,9.0,71,0.00,,,0.10,Rainwise IP-100,2013-07-31 13:21:00,
2013-07-31 09:26:00,86.0,75.0,30.12,NE,45,7.0,7.0,70,0.00,,,0.10,Rainwise IP-100,2013-07-31 13:26:00,
2013-07-31 09:31:00,86.0,75.0,30.12,ENE,67,6.0,6.0,70,0.00,,,0.10,Rainwise IP-100,2013-07-31 13:31:00,
2013-07-31 09:36:00,86.0,74.0,30.13,East,90,0.0,2.0,68,0.00,,,0.10,Rainwise IP-100,2013-07-31 13:36:00,
2013-07-31 09:41:00,87.0,75.0,30.13,East,90,9.0,9.0,68,0.00,,,0.10,Rainwise IP-100,2013-07-31 13:41:00,
2013-07-31 09:46:00,86.0,74.0,30.13,NE,45,0.0,2.0,69,0.00,,,0.10,Rainwise IP-100,2013-07-31 13:46:00,
2013-07-31 09:52:00,87.0,74.0,30.13,East,90,0.0,3.0,67,0.00,,,0.10,Rainwise IP-100,2013-07-31 13:52:00,
2013-07-31 09:57:00,87.0,74.0,30.14,ENE,67,0.0,5.0,67,0.00,,,0.10,Rainwise IP-100,2013-07-31 13:57:00,
2013-07-31 10:02:00,87.0,75.0,30.14,NE,45,6.0,6.0,68,0.00,,,0.10,Rainwise IP-100,2013-07-31 14:02:00,
2013-07-31 10:07:00,87.0,75.0,30.14,ENE,67,7.0,7.0,68,0.00,,,0.10,Rainwise IP-100,2013-07-31 14:07:00,
2013-07-31 10:12:00,87.0,74.0,30.14,East,90,1.0,0.0,67,0.00,,,0.10,Rainwise IP-100,2013-07-31 14:12:00,
2013-07-31 10:17:00,87.0,73.0,30.14,NE,45,7.0,7.0,65,0.00,,,0.10,Rainwise IP-100,2013-07-31 14:17:00,
2013-07-31 10:22:00,88.0,73.0,30.14,NE,45,7.0,7.0,63,0.00,,,0.10,Rainwise IP-100,2013-07-31 14:22:00,
2013-07-31 10:27:00,87.0,73.0,30.14,East,90,9.0,9.0,64,0.00,,,0.10,Rainwise IP-100,2013-07-31 14:27:00,
2013-07-31 10:33:00,87.0,73.0,30.15,East,90,5.0,5.0,65,0.00,,,0.10,Rainwise IP-100,2013-07-31 14:33:00,
2013-07-31 10:38:00,88.0,74.0,30.15,SE,135,4.0,9.0,65,0.00,,,0.10,Rainwise IP-100,2013-07-31 14:38:00,
2013-07-31 10:43:00,88.0,74.0,30.15,NE,45,2.0,2.0,64,0.00,,,0.10,Rainwise IP-100,2013-07-31 14:43:00,
2013-07-31 10:48:00,88.0,73.0,30.15,NE,45,7.0,7.0,63,0.00,,,0.10,Rainwise IP-100,2013-07-31 14:48:00,
2013-07-31 10:53:00,89.0,74.0,30.15,East,90,7.0,7.0,63,0.00,,,0.10,Rainwise IP-100,2013-07-31 14:53:00,
2013-07-31 10:58:00,88.0,74.0,30.15,ESE,112,2.0,3.0,64,0.00,,,0.10,Rainwise IP-100,2013-07-31 14:58:00,
2013-07-31 11:03:00,88.0,74.0,30.15,NE,45,0.0,6.0,65,0.00,,,0.10,Rainwise IP-100,2013-07-31 15:03:00,
2013-07-31 11:08:00,88.0,75.0,30.15,East,90,9.0,9.0,66,0.00,,,0.10,Rainwise IP-100,2013-07-31 15:08:00,
2013-07-31 11:14:00,87.0,73.0,30.15,East,90,7.0,7.0,65,0.00,,,0.10,Rainwise IP-100,2013-07-31 15:14:00,
2013-07-31 11:19:00,88.0,73.0,30.15,East,90,2.0,2.0,63,0.00,,,0.10,Rainwise IP-100,2013-07-31 15:19:00,
2013-07-31 11:24:00,88.0,74.0,30.15,NE,45,9.0,9.0,64,0.00,,,0.10,Rainwise IP-100,2013-07-31 15:24:00,
2013-07-31 11:29:00,88.0,74.0,30.15,East,90,9.0,9.0,64,0.00,,,0.10,Rainwise IP-100,2013-07-31 15:29:00,
2013-07-31 11:34:00,88.0,74.0,30.15,East,90,8.0,8.0,65,0.00,,,0.10,Rainwise IP-100,2013-07-31 15:34:00,
2013-07-31 11:39:00,88.0,74.0,30.15,NE,45,9.0,9.0,64,0.00,,,0.10,Rainwise IP-100,2013-07-31 15:39:00,
2013-07-31 11:44:00,88.0,74.0,30.15,NE,45,0.0,5.0,65,0.00,,,0.10,Rainwise IP-100,2013-07-31 15:44:00,
2013-07-31 11:50:00,87.0,74.0,30.15,NE,45,0.0,5.0,66,0.00,,,0.10,Rainwise IP-100,2013-07-31 15:50:00,
2013-07-31 11:55:00,87.0,74.0,30.15,East,90,9.0,9.0,67,0.00,,,0.10,Rainwise IP-100,2013-07-31 15:55:00,
2013-07-31 12:00:00,87.0,74.0,30.15,NE,45,0.0,5.0,67,0.00,,,0.10,Rainwise IP-100,2013-07-31 16:00:00,
2013-07-31 12:05:00,87.0,74.0,30.15,East,90,8.0,8.0,66,0.00,,,0.10,Rainwise IP-100,2013-07-31 16:05:00,
2013-07-31 12:10:00,87.0,73.0,30.14,NE,45,6.0,6.0,65,0.00,,,0.10,Rainwise IP-100,2013-07-31 16:10:00,
2013-07-31 12:15:00,88.0,75.0,30.14,NE,45,0.0,6.0,66,0.00,,,0.10,Rainwise IP-100,2013-07-31 16:15:00,
2013-07-31 12:20:00,88.0,74.0,30.14,NE,45,8.0,8.0,65,0.00,,,0.10,Rainwise IP-100,2013-07-31 16:20:00,
2013-07-31 12:25:00,88.0,74.0,30.13,East,90,8.0,8.0,65,0.00,,,0.10,Rainwise IP-100,2013-07-31 16:25:00,
2013-07-31 12:31:00,88.0,74.0,30.13,East,90,8.0,8.0,65,0.00,,,0.10,Rainwise IP-100,2013-07-31 16:31:00,
2013-07-31 12:36:00,88.0,75.0,30.13,East,90,7.0,7.0,66,0.00,,,0.10,Rainwise IP-100,2013-07-31 16:36:00,
2013-07-31 12:41:00,88.0,75.0,30.13,East,90,8.0,8.0,66,0.00,,,0.10,Rainwise IP-100,2013-07-31 16:41:00,
2013-07-31 12:46:00,87.0,74.0,30.13,NE,45,0.0,4.0,67,0.00,,,0.10,Rainwise IP-100,2013-07-31 16:46:00,
2013-07-31 12:51:00,87.0,73.0,30.13,ENE,67,0.0,6.0,65,0.00,,,0.10,Rainwise IP-100,2013-07-31 16:51:00,
2013-07-31 12:56:00,87.0,74.0,30.13,NE,45,0.0,3.0,66,0.00,,,0.10,Rainwise IP-100,2013-07-31 16:56:00,
2013-07-31 13:01:00,87.0,72.0,30.13,East,90,6.0,6.0,61,0.00,,,0.10,Rainwise IP-100,2013-07-31 17:01:00,
2013-07-31 13:07:00,87.0,73.0,30.13,East,90,2.0,5.0,65,0.00,,,0.10,Rainwise IP-100,2013-07-31 17:07:00,
2013-07-31 13:12:00,88.0,73.0,30.13,NE,45,8.0,8.0,63,0.00,,,0.10,Rainwise IP-100,2013-07-31 17:12:00,
2013-07-31 13:17:00,87.0,72.0,30.13,ENE,67,6.0,6.0,61,0.00,,,0.10,Rainwise IP-100,2013-07-31 17:17:00,
2013-07-31 13:22:00,88.0,73.0,30.13,NE,45,0.0,2.0,63,0.00,,,0.10,Rainwise IP-100,2013-07-31 17:22:00,
2013-07-31 13:27:00,88.0,74.0,30.12,East,90,7.0,7.0,64,0.00,,,0.10,Rainwise IP-100,2013-07-31 17:27:00,
2013-07-31 13:32:00,88.0,73.0,30.12,NE,45,6.0,6.0,63,0.00,,,0.10,Rainwise IP-100,2013-07-31 17:32:00,
2013-07-31 13:37:00,88.0,73.0,30.12,NE,45,7.0,7.0,62,0.00,,,0.10,Rainwise IP-100,2013-07-31 17:37:00,
2013-07-31 13:42:00,88.0,73.0,30.12,ESE,112,2.0,0.0,63,0.00,,,0.10,Rainwise IP-100,2013-07-31 17:42:00,
2013-07-31 13:48:00,88.0,73.0,30.12,ENE,67,8.0,8.0,61,0.00,,,0.10,Rainwise IP-100,2013-07-31 17:48:00,
2013-07-31 13:53:00,87.0,72.0,30.12,ENE,67,8.0,8.0,63,0.00,,,0.10,Rainwise IP-100,2013-07-31 17:53:00,
2013-07-31 13:58:00,87.0,72.0,30.12,East,90,6.0,6.0,63,0.00,,,0.10,Rainwise IP-100,2013-07-31 17:58:00,
2013-07-31 14:03:00,88.0,73.0,30.12,ENE,67,6.0,0.0,62,0.00,,,0.10,Rainwise IP-100,2013-07-31 18:03:00,
2013-07-31 14:08:00,88.0,73.0,30.12,East,90,6.0,6.0,61,0.00,,,0.10,Rainwise IP-100,2013-07-31 18:08:00,
2013-07-31 14:13:00,88.0,73.0,30.12,NE,45,7.0,7.0,61,0.00,,,0.10,Rainwise IP-100,2013-07-31 18:13:00,
2013-07-31 14:18:00,88.0,74.0,30.12,ENE,67,7.0,7.0,64,0.00,,,0.10,Rainwise IP-100,2013-07-31 18:18:00,
2013-07-31 14:24:00,88.0,74.0,30.11,East,90,0.0,2.0,64,0.00,,,0.10,Rainwise IP-100,2013-07-31 18:24:00,
2013-07-31 14:29:00,88.0,73.0,30.11,East,90,4.0,5.0,63,0.00,,,0.10,Rainwise IP-100,2013-07-31 18:29:00,
2013-07-31 14:34:00,88.0,73.0,30.10,ENE,67,7.0,7.0,63,0.00,,,0.10,Rainwise IP-100,2013-07-31 18:34:00,
2013-07-31 14:39:00,87.0,73.0,30.10,NE,45,7.0,7.0,64,0.00,,,0.10,Rainwise IP-100,2013-07-31 18:39:00,
2013-07-31 14:44:00,88.0,73.0,30.10,SSE,157,5.0,5.0,63,0.00,,,0.10,Rainwise IP-100,2013-07-31 18:44:00,
2013-07-31 14:49:00,88.0,73.0,30.10,NE,45,7.0,7.0,61,0.00,,,0.10,Rainwise IP-100,2013-07-31 18:49:00,
2013-07-31 14:51:00,88.0,73.0,30.10,NE,45,9.0,9.0,63,0.00,,,0.10,Rainwise IP-100,2013-07-31 18:51:00,
2013-07-31 14:56:00,87.0,72.0,30.10,East,90,9.0,9.0,63,0.00,,,0.10,Rainwise IP-100,2013-07-31 18:56:00,
2013-07-31 15:01:00,87.0,72.0,30.10,SE,135,1.0,3.0,63,0.00,,,0.10,Rainwise IP-100,2013-07-31 19:01:00,
2013-07-31 15:07:00,87.0,73.0,30.10,NE,45,9.0,9.0,65,0.00,,,0.10,Rainwise IP-100,2013-07-31 19:07:00,
2013-07-31 15:12:00,87.0,72.0,30.09,NE,45,6.0,6.0,61,0.00,,,0.10,Rainwise IP-100,2013-07-31 19:12:00,
2013-07-31 15:17:00,88.0,74.0,30.08,NE,45,0.0,4.0,64,0.00,,,0.10,Rainwise IP-100,2013-07-31 19:17:00,
2013-07-31 15:22:00,88.0,74.0,30.09,East,90,7.0,7.0,64,0.00,,,0.10,Rainwise IP-100,2013-07-31 19:22:00,
2013-07-31 15:27:00,87.0,72.0,30.08,ENE,67,0.0,9.0,63,0.00,,,0.10,Rainwise IP-100,2013-07-31 19:27:00,
2013-07-31 15:32:00,87.0,72.0,30.08,NE,45,0.0,5.0,63,0.00,,,0.10,Rainwise IP-100,2013-07-31 19:32:00,
2013-07-31 15:37:00,87.0,73.0,30.08,NE,45,7.0,7.0,65,0.00,,,0.10,Rainwise IP-100,2013-07-31 19:37:00,
2013-07-31 15:43:00,87.0,73.0,30.08,ESE,112,5.0,5.0,65,0.00,,,0.10,Rainwise IP-100,2013-07-31 19:43:00,
2013-07-31 15:48:00,88.0,74.0,30.08,South,180,5.0,5.0,65,0.00,,,0.10,Rainwise IP-100,2013-07-31 19:48:00,
2013-07-31 15:53:00,88.0,73.0,30.08,East,90,0.0,3.0,63,0.00,,,0.10,Rainwise IP-100,2013-07-31 19:53:00,
2013-07-31 15:58:00,88.0,74.0,30.08,East,90,7.0,7.0,65,0.00,,,0.10,Rainwise IP-100,2013-07-31 19:58:00,
2013-07-31 16:03:00,88.0,75.0,30.08,East,90,0.0,6.0,66,0.00,,,0.10,Rainwise IP-100,2013-07-31 20:03:00,
2013-07-31 16:08:00,87.0,74.0,30.07,ENE,67,6.0,6.0,66,0.00,,,0.10,Rainwise IP-100,2013-07-31 20:08:00,
2013-07-31 16:13:00,87.0,73.0,30.07,SSE,157,4.0,0.0,64,0.00,,,0.10,Rainwise IP-100,2013-07-31 20:13:00,
2013-07-31 16:18:00,88.0,73.0,30.07,NNE,22,0.0,9.0,63,0.00,,,0.10,Rainwise IP-100,2013-07-31 20:18:00,
2013-07-31 16:24:00,88.0,72.0,30.07,East,90,6.0,6.0,59,0.00,,,0.10,Rainwise IP-100,2013-07-31 20:24:00,
2013-07-31 16:29:00,88.0,72.0,30.07,ENE,67,7.0,7.0,59,0.00,,,0.10,Rainwise IP-100,2013-07-31 20:29:00,
2013-07-31 16:34:00,87.0,72.0,30.07,NE,45,0.0,3.0,62,0.00,,,0.10,Rainwise IP-100,2013-07-31 20:34:00,
2013-07-31 16:39:00,87.0,72.0,30.06,East,90,7.0,7.0,61,0.00,,,0.10,Rainwise IP-100,2013-07-31 20:39:00,
2013-07-31 16:44:00,88.0,72.0,30.06,East,90,5.0,7.0,59,0.00,,,0.10,Rainwise IP-100,2013-07-31 20:44:00,
2013-07-31 16:49:00,88.0,73.0,30.07,East,90,6.0,0.0,62,0.00,,,0.10,Rainwise IP-100,2013-07-31 20:49:00,
2013-07-31 16:54:00,88.0,72.0,30.07,East,90,9.0,9.0,60,0.00,,,0.10,Rainwise IP-100,2013-07-31 20:54:00,
2013-07-31 17:00:00,88.0,73.0,30.07,ENE,67,0.0,5.0,62,0.00,,,0.10,Rainwise IP-100,2013-07-31 21:00:00,
2013-07-31 17:05:00,87.0,72.0,30.06,ESE,112,6.0,6.0,63,0.00,,,0.10,Rainwise IP-100,2013-07-31 21:05:00,
2013-07-31 17:10:00,87.0,73.0,30.06,East,90,9.0,9.0,65,0.00,,,0.10,Rainwise IP-100,2013-07-31 21:10:00,
2013-07-31 17:15:00,87.0,74.0,30.06,NE,45,5.0,5.0,66,0.00,,,0.10,Rainwise IP-100,2013-07-31 21:15:00,
2013-07-31 17:20:00,87.0,72.0,30.06,East,90,6.0,6.0,63,0.00,,,0.10,Rainwise IP-100,2013-07-31 21:20:00,
2013-07-31 17:25:00,86.0,72.0,30.06,ESE,112,6.0,6.0,65,0.00,,,0.10,Rainwise IP-100,2013-07-31 21:25:00,
2013-07-31 17:30:00,87.0,73.0,30.06,ENE,67,9.0,9.0,64,0.00,,,0.10,Rainwise IP-100,2013-07-31 21:30:00,
2013-07-31 17:35:00,87.0,72.0,30.05,East,90,5.0,6.0,63,0.00,,,0.10,Rainwise IP-100,2013-07-31 21:35:00,
2013-07-31 17:41:00,87.0,72.0,30.05,ESE,112,1.0,6.0,63,0.00,,,0.10,Rainwise IP-100,2013-07-31 21:41:00,
2013-07-31 17:46:00,86.0,72.0,30.05,NNE,22,4.0,5.0,65,0.00,,,0.10,Rainwise IP-100,2013-07-31 21:46:00,
2013-07-31 17:51:00,86.0,73.0,30.04,North,360,1.0,4.0,66,0.00,,,0.10,Rainwise IP-100,2013-07-31 21:51:00,
2013-07-31 17:56:00,86.0,72.0,30.04,East,90,9.0,9.0,65,0.00,,,0.10,Rainwise IP-100,2013-07-31 21:56:00,
2013-07-31 18:01:00,86.0,72.0,30.04,ESE,112,4.0,4.0,65,0.00,,,0.10,Rainwise IP-100,2013-07-31 22:01:00,
2013-07-31 18:06:00,86.0,73.0,30.04,East,90,7.0,7.0,66,0.00,,,0.10,Rainwise IP-100,2013-07-31 22:06:00,
2013-07-31 18:11:00,86.0,73.0,30.04,East,90,7.0,7.0,67,0.00,,,0.10,Rainwise IP-100,2013-07-31 22:11:00,
2013-07-31 18:17:00,86.0,73.0,30.04,ESE,112,6.0,6.0,67,0.00,,,0.10,Rainwise IP-100,2013-07-31 22:17:00,
2013-07-31 18:22:00,86.0,72.0,30.04,NE,45,7.0,7.0,65,0.00,,,0.10,Rainwise IP-100,2013-07-31 22:22:00,
2013-07-31 18:27:00,86.0,73.0,30.04,NE,45,3.0,6.0,66,0.00,,,0.10,Rainwise IP-100,2013-07-31 22:27:00,
2013-07-31 18:32:00,86.0,73.0,30.04,East,90,0.0,5.0,66,0.00,,,0.10,Rainwise IP-100,2013-07-31 22:32:00,
2013-07-31 18:37:00,86.0,73.0,30.04,East,90,8.0,8.0,66,0.00,,,0.10,Rainwise IP-100,2013-07-31 22:37:00,
2013-07-31 18:42:00,86.0,72.0,30.04,East,90,0.0,5.0,64,0.00,,,0.10,Rainwise IP-100,2013-07-31 22:42:00,
2013-07-31 18:47:00,86.0,73.0,30.04,East,90,8.0,8.0,66,0.00,,,0.10,Rainwise IP-100,2013-07-31 22:47:00,
2013-07-31 18:52:00,86.0,72.0,30.04,East,90,6.0,6.0,65,0.00,,,0.10,Rainwise IP-100,2013-07-31 22:52:00,
2013-07-31 18:58:00,86.0,72.0,30.04,ESE,112,4.0,4.0,65,0.00,,,0.10,Rainwise IP-100,2013-07-31 22:58:00,
2013-07-31 19:03:00,85.0,73.0,30.04,East,90,4.0,4.0,68,0.00,,,0.10,Rainwise IP-100,2013-07-31 23:03:00,
2013-07-31 19:08:00,85.0,72.0,30.04,ENE,67,5.0,5.0,67,0.00,,,0.10,Rainwise IP-100,2013-07-31 23:08:00,
2013-07-31 19:13:00,85.0,73.0,30.04,East,90,6.0,6.0,68,0.00,,,0.10,Rainwise IP-100,2013-07-31 23:13:00,
2013-07-31 19:18:00,85.0,72.0,30.04,SE,135,5.0,5.0,67,0.00,,,0.10,Rainwise IP-100,2013-07-31 23:18:00,
2013-07-31 19:23:00,85.0,72.0,30.04,East,90,8.0,8.0,67,0.00,,,0.10,Rainwise IP-100,2013-07-31 23:23:00,
2013-07-31 19:28:00,85.0,72.0,30.04,SE,135,7.0,7.0,67,0.00,,,0.10,Rainwise IP-100,2013-07-31 23:28:00,
2013-07-31 19:34:00,84.0,73.0,30.04,NE,45,9.0,9.0,70,0.00,,,0.10,Rainwise IP-100,2013-07-31 23:34:00,
2013-07-31 19:39:00,84.0,73.0,30.05,East,90,5.0,5.0,70,0.00,,,0.10,Rainwise IP-100,2013-07-31 23:39:00,
2013-07-31 19:44:00,84.0,73.0,30.05,East,90,5.0,0.0,71,0.00,,,0.10,Rainwise IP-100,2013-07-31 23:44:00,
2013-07-31 19:49:00,84.0,73.0,30.05,East,90,5.0,5.0,70,0.00,,,0.10,Rainwise IP-100,2013-07-31 23:49:00,
2013-07-31 19:54:00,83.0,71.0,30.05,East,90,6.0,9.0,67,0.00,,,0.10,Rainwise IP-100,2013-07-31 23:54:00,
2013-07-31 19:59:00,83.0,72.0,30.05,East,90,9.0,9.0,69,0.00,,,0.10,Rainwise IP-100,2013-07-31 23:59:00,
2013-07-31 20:04:00,83.0,72.0,30.05,East,90,5.0,5.0,69,0.00,,,0.10,Rainwise IP-100,2013-08-01 00:04:00,
2013-07-31 20:09:00,83.0,72.0,30.04,NE,45,0.0,6.0,70,0.00,,,0.10,Rainwise IP-100,2013-08-01 00:09:00,
2013-07-31 20:15:00,83.0,72.0,30.04,SE,135,2.0,2.0,70,0.00,,,0.10,Rainwise IP-100,2013-08-01 00:15:00,
2013-07-31 20:20:00,82.0,71.0,30.04,East,90,6.0,6.0,69,0.00,,,0.10,Rainwise IP-100,2013-08-01 00:20:00,
2013-07-31 20:25:00,82.0,71.0,30.04,ENE,67,0.0,3.0,70,0.00,,,0.10,Rainwise IP-100,2013-08-01 00:25:00,
2013-07-31 20:30:00,82.0,71.0,30.04,NE,45,8.0,8.0,71,0.00,,,0.10,Rainwise IP-100,2013-08-01 00:30:00,
2013-07-31 20:35:00,82.0,71.0,30.04,East,90,6.0,6.0,69,0.00,,,0.10,Rainwise IP-100,2013-08-01 00:35:00,
2013-07-31 20:40:00,82.0,71.0,30.05,NE,45,7.0,7.0,69,0.00,,,0.10,Rainwise IP-100,2013-08-01 00:40:00,
2013-07-31 20:45:00,82.0,71.0,30.05,East,90,7.0,7.0,69,0.00,,,0.10,Rainwise IP-100,2013-08-01 00:45:00,
2013-07-31 20:51:00,82.0,71.0,30.05,SE,135,6.0,6.0,69,0.00,,,0.10,Rainwise IP-100,2013-08-01 00:51:00,
2013-07-31 20:56:00,82.0,71.0,30.05,ENE,67,7.0,9.0,71,0.00,,,0.10,Rainwise IP-100,2013-08-01 00:56:00,
2013-07-31 21:01:00,82.0,71.0,30.05,East,90,5.0,0.0,71,0.00,,,0.10,Rainwise IP-100,2013-08-01 01:01:00,
2013-07-31 21:06:00,82.0,71.0,30.06,SE,135,5.0,0.0,70,0.00,,,0.10,Rainwise IP-100,2013-08-01 01:06:00,
2013-07-31 21:11:00,82.0,71.0,30.06,NE,45,4.0,0.0,71,0.00,,,0.10,Rainwise IP-100,2013-08-01 01:11:00,
2013-07-31 21:16:00,82.0,71.0,30.06,ESE,112,9.0,9.0,71,0.00,,,0.10,Rainwise IP-100,2013-08-01 01:16:00,
2013-07-31 21:21:00,82.0,71.0,30.06,East,90,5.0,5.0,71,0.00,,,0.10,Rainwise IP-100,2013-08-01 01:21:00,
2013-07-31 21:26:00,82.0,70.0,30.06,East,90,0.0,3.0,68,0.00,,,0.10,Rainwise IP-100,2013-08-01 01:26:00,
2013-07-31 21:32:00,82.0,71.0,30.06,East,90,8.0,8.0,69,0.00,,,0.10,Rainwise IP-100,2013-08-01 01:32:00,
2013-07-31 21:37:00,82.0,71.0,30.06,East,90,6.0,6.0,69,0.00,,,0.10,Rainwise IP-100,2013-08-01 01:37:00,
2013-07-31 21:42:00,82.0,71.0,30.06,East,90,1.0,0.0,69,0.00,,,0.10,Rainwise IP-100,2013-08-01 01:42:00,
2013-07-31 21:47:00,82.0,71.0,30.06,East,90,2.0,3.0,69,0.00,,,0.10,Rainwise IP-100,2013-08-01 01:47:00,
2013-07-31 21:52:00,82.0,71.0,30.06,East,90,9.0,0.0,69,0.00,,,0.10,Rainwise IP-100,2013-08-01 01:52:00,
2013-07-31 21:57:00,82.0,71.0,30.06,East,90,7.0,7.0,71,0.00,,,0.10,Rainwise IP-100,2013-08-01 01:57:00,
2013-07-31 22:02:00,82.0,71.0,30.06,East,90,6.0,6.0,71,0.00,,,0.10,Rainwise IP-100,2013-08-01 02:02:00,
2013-07-31 22:08:00,82.0,71.0,30.06,NE,45,7.0,0.0,71,0.00,,,0.10,Rainwise IP-100,2013-08-01 02:08:00,
2013-07-31 22:13:00,82.0,72.0,30.06,ESE,112,3.0,0.0,73,0.00,,,0.10,Rainwise IP-100,2013-08-01 02:13:00,
2013-07-31 22:18:00,82.0,72.0,30.06,East,90,0.0,3.0,74,0.00,,,0.10,Rainwise IP-100,2013-08-01 02:18:00,
2013-07-31 22:23:00,82.0,72.0,30.06,East,90,6.0,6.0,74,0.00,,,0.10,Rainwise IP-100,2013-08-01 02:23:00,
2013-07-31 22:28:00,82.0,73.0,30.06,East,90,4.0,4.0,75,0.00,,,0.10,Rainwise IP-100,2013-08-01 02:28:00,
2013-07-31 22:33:00,82.0,73.0,30.06,East,90,9.0,9.0,76,0.00,,,0.10,Rainwise IP-100,2013-08-01 02:33:00,
2013-07-31 22:38:00,82.0,73.0,30.07,NE,45,9.0,9.0,76,0.00,,,0.10,Rainwise IP-100,2013-08-01 02:38:00,
2013-07-31 22:43:00,82.0,73.0,30.07,SE,135,6.0,6.0,76,0.00,,,0.10,Rainwise IP-100,2013-08-01 02:43:00,
2013-07-31 22:49:00,82.0,73.0,30.07,East,90,1.0,8.0,76,0.00,,,0.10,Rainwise IP-100,2013-08-01 02:49:00,
2013-07-31 22:54:00,82.0,73.0,30.07,SE,135,3.0,9.0,76,0.00,,,0.10,Rainwise IP-100,2013-08-01 02:54:00,
2013-07-31 22:59:00,81.0,72.0,30.07,East,90,3.0,9.0,76,0.00,,,0.10,Rainwise IP-100,2013-08-01 02:59:00,
2013-07-31 23:04:00,81.0,72.0,30.07,SSE,157,4.0,9.0,76,0.00,,,0.10,Rainwise IP-100,2013-08-01 03:04:00,
2013-07-31 23:09:00,81.0,72.0,30.07,East,90,5.0,5.0,76,0.00,,,0.10,Rainwise IP-100,2013-08-01 03:09:00,
2013-07-31 23:14:00,81.0,72.0,30.07,East,90,4.0,9.0,76,0.00,,,0.10,Rainwise IP-100,2013-08-01 03:14:00,
2013-07-31 23:19:00,81.0,72.0,30.07,East,90,3.0,3.0,76,0.00,,,0.10,Rainwise IP-100,2013-08-01 03:19:00,
2013-07-31 23:25:00,81.0,72.0,30.07,ENE,67,6.0,0.0,76,0.00,,,0.10,Rainwise IP-100,2013-08-01 03:25:00,
2013-07-31 23:30:00,82.0,73.0,30.07,ENE,67,2.0,2.0,76,0.00,,,0.10,Rainwise IP-100,2013-08-01 03:30:00,
2013-07-31 23:35:00,82.0,73.0,30.07,ESE,112,5.0,0.0,75,0.00,,,0.10,Rainwise IP-100,2013-08-01 03:35:00,
2013-07-31 23:40:00,82.0,72.0,30.07,ESE,112,7.0,7.0,74,0.00,,,0.10,Rainwise IP-100,2013-08-01 03:40:00,
2013-07-31 23:45:00,82.0,72.0,30.07,SE,135,3.0,9.0,74,0.00,,,0.10,Rainwise IP-100,2013-08-01 03:45:00,
2013-07-31 23:50:00,82.0,73.0,30.06,South,180,3.0,3.0,75,0.00,,,0.10,Rainwise IP-100,2013-08-01 03:50:00,
2013-07-31 23:55:00,82.0,73.0,30.06,ENE,67,6.0,6.0,75,0.00,,,0.10,Rainwise IP-100,2013-08-01 03:55:00,